Race Analysis

 :: S58

Ver o tópico anterior Ver o tópico seguinte Ir em baixo

Race Analysis

Mensagem por Paulo Coutinho em Seg Maio 15, 2017 12:16 pm

Barcelona (Spain), Season 58


Lap Lap time Pos Tyres Weather Temp (°) Hum (%) Events
0 - 9 Hard Sunny 30 5 -
1 1:34.349 12 Hard Sunny 30 5 -
2 1:26.239 12 Hard Sunny 30 5 -
3 1:25.885 11 Hard Sunny 30 5 -
4 1:26.345 11 Hard Sunny 30 5 -
5 1:26.695 11 Hard Sunny 30 5 -
6 1:26.401 11 Hard Sunny 30 5 -
7 1:25.979 11 Hard Sunny 30 5 -
8 1:26.220 11 Hard Sunny 29 5 -
9 1:26.045 11 Hard Sunny 29 5 -
10 1:25.470 11 Hard Sunny 29 5 -
11 1:25.611 11 Hard Sunny 29 5 -
12 1:25.374 10 Hard Sunny 29 5 -
13 1:25.496 10 Hard Sunny 29 5 -
14 1:25.273 10 Hard Sunny 29 5 -
15 1:25.247 10 Hard Sunny 29 5 -
16 1:25.208 10 Hard Sunny 29 5 -
17 1:25.294 10 Hard Sunny 29 4 -
18 1:25.076 10 Hard Sunny 29 4 -
19 1:24.848 10 Hard Sunny 29 3 -
20 1:25.508 10 Hard Sunny 29 3 -
21 1:26.234 10 Hard Sunny 29 3 -
22 1:25.288 5 Hard Sunny 30 3 -
23 1:24.661 4 Hard Sunny 31 3 -
24 1:24.638 4 Hard Sunny 31 3 -
25 1:24.435 4 Hard Sunny 31 3 -
26 1:24.499 3 Hard Sunny 32 3 -
27 1:24.222 3 Hard Sunny 32 3 -
28 1:24.523 3 Hard Sunny 31 3 -
29 1:24.374 3 Hard Sunny 30 3 -
30 1:24.457 3 Hard Sunny 29 3 -
31 1:24.295 3 Hard Sunny 29 3 -
32 1:24.252 3 Hard Sunny 29 3 -
33 1:34.781 4 Hard Sunny 29 3 Pit
34 2:04.821 8 Hard Sunny 29 3 -
35 1:26.370 9 Hard Sunny 29 3 -
36 1:25.767 9 Hard Sunny 29 3 -
37 1:25.729 9 Hard Sunny 29 3 -
38 1:25.682 9 Hard Sunny 29 3 -
39 1:25.805 9 Hard Sunny 29 3 -
40 1:24.675 9 Hard Sunny 29 3 -
41 1:24.783 9 Hard Sunny 29 3 -
42 1:24.792 9 Hard Sunny 29 3 -
43 1:25.564 9 Hard Sunny 29 3 -
44 1:25.341 6 Hard Sunny 29 3 -
45 1:25.442 5 Hard Sunny 29 3 -
46 1:33.348 5 Hard Sunny 29 3 Driver mistake
47 1:25.061 5 Hard Sunny 29 3 -
48 1:24.926 5 Hard Sunny 29 3 -
49 1:24.836 5 Hard Sunny 29 3 -
50 1:24.436 5 Hard Sunny 29 3 -
51 1:24.473 4 Hard Sunny 29 3 -
52 1:23.698 4 Hard Sunny 29 3 -
53 1:24.580 4 Hard Sunny 29 3 -
54 1:24.750 4 Hard Sunny 29 3 -
55 1:24.433 4 Hard Sunny 29 3 -
56 1:24.416 4 Hard Sunny 29 3 -
57 1:24.293 4 Hard Sunny 30 3 -
58 1:23.590 4 Hard Sunny 30 3 -
59 1:23.634 4 Hard Sunny 30 3 -
60 1:23.709 4 Hard Sunny 31 3 -
61 1:23.719 4 Hard Sunny 32 3 -
62 1:23.602 4 Hard Sunny 32 3 -
63 1:23.802 4 Hard Sunny 31 3 -
64 1:23.787 4 Hard Sunny 30 3 -
65 1:23.737 4 Hard Sunny 30 3 -


Risks used:
Overtake Defend Clear & dry Clear & wet Malfunct
40 20 30 0 0

Setup used:
Front wing Rear wing Engine Brakes Gear Suspension
667 567 911 486 452 549

Cha Eng FWing RWing Underb Sidep Cool Gear Bra Susp Elec
Car parts level: 7 6 6 6 7 8 8 7 8 8 7
Car parts wear (at the start) (%): 41 15 64 58 68 22 23 21 0 0 78
Car parts wear (at the finish) (%): 58 57 92 91 89 40 40 44 41 32 90

Start fuel (liters): 105

Pit Pitstop reason Tyres condition (%) Fuel left (%) Refilled to (liters) Pit time (sec)
Stop 1 (Lap 33): No more fuel was left 22 0 113 liters 27.731

Tyres condition after finish (%): 25

Fuel left in the car after finish (liters): 7

Driver energy
100% 36%

_________________
Paulo Coutinho
avatar
Paulo Coutinho

Mensagens : 1715
Data de inscrição : 31/03/2015
Idade : 44

Ver perfil do usuário

Voltar ao Topo Ir em baixo

Re: Race Analysis

Mensagem por Gabriel Miranda em Ter Maio 23, 2017 11:26 am

Barcelona (Spain), Época 58


Volta Tempo volta Pos Pneus Tempo Temp (°) Hum (%) Ocorrências
0 - 13 Duros Sol 30 5 -
1 1:35.155 14 Duros Sol 30 5 -
2 1:27.142 14 Duros Sol 30 5 -
3 1:26.494 14 Duros Sol 30 5 -
4 1:26.314 14 Duros Sol 30 5 -
5 1:26.024 14 Duros Sol 30 5 -
6 1:26.193 14 Duros Sol 30 5 -
7 1:26.836 15 Duros Sol 30 5 -
8 1:26.269 15 Duros Sol 29 5 -
9 1:26.570 14 Duros Sol 29 5 -
10 1:25.802 14 Duros Sol 29 5 -
11 1:25.966 14 Duros Sol 29 5 -
12 1:25.896 14 Duros Sol 29 5 -
13 1:27.083 14 Duros Sol 29 5 -
14 1:26.233 13 Duros Sol 29 5 -
15 1:25.891 13 Duros Sol 29 5 -
16 1:25.483 12 Duros Sol 29 5 -
17 1:25.204 12 Duros Sol 29 4 -
18 1:25.648 12 Duros Sol 29 4 -
19 1:25.450 12 Duros Sol 29 3 -
20 1:25.529 12 Duros Sol 29 3 -
21 1:25.335 11 Duros Sol 29 3 -
22 1:25.167 9 Duros Sol 30 3 -
23 1:25.105 6 Duros Sol 31 3 -
24 1:24.755 4 Duros Sol 31 3 -
25 1:24.905 4 Duros Sol 31 3 -
26 1:24.755 4 Duros Sol 32 3 -
27 1:24.735 4 Duros Sol 32 3 -
28 1:24.561 4 Duros Sol 31 3 -
29 1:24.758 4 Duros Sol 30 3 -
30 1:25.045 4 Duros Sol 29 3 -
31 1:24.544 4 Duros Sol 29 3 -
32 1:24.833 5 Duros Sol 29 3 -
33 1:34.823 6 Duros Sol 29 3 Pit
34 2:02.936 10 Duros Sol 29 3 -
35 1:26.645 10 Duros Sol 29 3 -
36 1:26.443 10 Duros Sol 29 3 -
37 1:26.322 10 Duros Sol 29 3 -
38 1:25.960 10 Duros Sol 29 3 -
39 1:26.021 11 Duros Sol 29 3 -
40 1:26.048 11 Duros Sol 29 3 -
41 1:25.457 11 Duros Sol 29 3 -
42 1:25.749 10 Duros Sol 29 3 -
43 1:25.658 10 Duros Sol 29 3 -
44 1:25.507 9 Duros Sol 29 3 -
45 1:25.815 7 Duros Sol 29 3 -
46 1:25.543 7 Duros Sol 29 3 -
47 1:25.320 6 Duros Sol 29 3 -
48 1:25.119 6 Duros Sol 29 3 -
49 1:25.089 6 Duros Sol 29 3 -
50 1:25.200 6 Duros Sol 29 3 -
51 1:28.587 8 Duros Sol 29 3 Erro do Piloto
52 1:24.833 8 Duros Sol 29 3 -
53 1:25.201 8 Duros Sol 29 3 -
54 1:24.948 8 Duros Sol 29 3 -
55 1:24.581 8 Duros Sol 29 3 -
56 1:24.955 8 Duros Sol 29 3 -
57 1:23.649 8 Duros Sol 30 3 -
58 1:23.318 8 Duros Sol 30 3 -
59 1:23.448 8 Duros Sol 30 3 -
60 1:23.354 8 Duros Sol 31 3 -
61 1:24.881 8 Duros Sol 32 3 -
62 1:24.656 8 Duros Sol 32 3 -
63 1:23.800 7 Duros Sol 31 3 -
64 1:24.556 7 Duros Sol 30 3 -
65 1:25.040 7 Duros Sol 30 3 -


Riscos usados:
Ultrapassagem Defesa Pista Livre e Seca Pista Livre e Chuva Avaria
20 20 30 0 0

Afinação usada:
Asa Dianteira Asa Traseira Motor Travões Caixa Suspensão
566 524 778 481 455 384

Cha Mot ADiant ATras Carroç Later Refrig Caixa Trav Susp Elec
Nível das peças: 6 6 6 6 6 6 6 6 6 6 6
Desgaste das Peças (no início) (%): 0 66 0 0 26 45 31 0 0 26 0
Desgaste das Peças (no final) (%): 17 100 28 33 47 59 45 22 33 52 12

Combustível inicíal (litros): 111

Pit Razão da paragem Estado pneus (%) Combust. restante (%) Reabast. até (litros) Tempo da paragem (seg)
Paragem 1 (Volta 33): Não havia mais combustível 19 1 113 litros 25.362
avatar
Gabriel Miranda

Mensagens : 927
Data de inscrição : 29/12/2014
Idade : 44

Ver perfil do usuário

Voltar ao Topo Ir em baixo

Ver o tópico anterior Ver o tópico seguinte Voltar ao Topo

- Tópicos similares

 :: S58

 
Permissão deste fórum:
Você não pode responder aos tópicos neste fórum